Simultaneous Nadir Overpasses (SNOs) Predictions

Prediction of SNOs between AQUA and GOES-15 Satellite Orbit:

Table of predicted SNOs for the next 14.0 days since TLE Epoch: 6/12/2020
Index Date Time (AQUA) AQUA Lat,Lon GOES-15 Lat,Lon Distance(km) Time Diff (sec)
1 06/12/2020 22:22:32 -0.81,-131.59 -0.02,-127.78 433.15 80
2 06/14/2020 09:48:56 -0.90,-123.44 0.01,-127.75 489.72 80
3 06/14/2020 22:10:20 -0.22,-128.63 -0.02,-127.71 104.13 80
4 06/16/2020 21:58:08 0.38,-125.66 -0.02,-127.64 224.44 80
5 06/17/2020 10:19:24 0.69,-130.83 0.03,-127.65 361.17 80
6 06/19/2020 10:07:12 0.09,-127.86 0.02,-127.57 33.63 80
7 06/21/2020 09:55:00 -0.51,-124.90 0.01,-127.48 293.12 80
8 06/21/2020 22:16:24 -0.58,-130.09 -0.02,-127.43 302.29 80
9 06/23/2020 22:04:12 0.03,-127.13 -0.02,-127.34 23.86 80
10 06/25/2020 21:52:00 0.64,-124.17 -0.02,-127.24 349.71 80
11 06/26/2020 10:13:15 0.45,-129.33 0.03,-127.25 235.96 80




NCC Satellite Simultaneous Nadir Overpasses (SNOs) Prediction Service
